Breckenridge, CO

2:11 PM MDT on August 25, 2016 (GMT -0600)
Copper Mountain

Weather History for KCCU - March, 2013

Change the Weather History Date:

Saturday, March 9, 2013

  Actual Average Record
Temperature  
Mean Temperature 16 °F -  
Max Temperature 24 °F - 41 °F (2004)
Min Temperature 8 °F - -7 °F (2002)
Degree Days  
Heating Degree Days 49    
Month to date heating degree days  
Cooling Degree Days 0    
Month to date cooling degree days  
Moisture  
Dew Point 13 °F    
Average Humidity 78    
Maximum Humidity 80    
Minimum Humidity 73    
Precipitation  
Precipitation 0.00 in - 0.09 in (2002)
Sea Level Pressure  
Sea Level Pressure 29.75 in    
Wind  
Wind Speed 11 mph (WNW)    
Max Wind Speed 22 mph    
Max Gust Speed 29 mph    
Visibility 1 miles    
Events Snow    
T = Trace of Precipitation, MM = Missing Value Source: NWS Daily Summary

Daily Weather History Graph

Daily Weather History Graph

Search for Another Location

Airport or City:

Trip Planner

Search our weather history database for the weather conditions in past years. The results will help you decide how hot, cold, wet, or windy it might be!

Date:

Astronomy

Mar. 09, 2013 Rise Set
Actual Time 6:24 AM MST 6:05 PM MST
Civil Twilight 5:58 AM MST 6:32 PM MST
Nautical Twilight 5:27 AM MST 7:03 PM MST
Astronomical Twilight 4:55 AM MST 7:35 PM MST
Moon 4:50 AM MST (3/9) 4:11 PM MST (3/9)
Length of Visible Light 12h 34m
Length of Day
11h 40m
Waning Crescent, 5% of the Moon is Illuminated
Mar 9
Waning Crescent
Mar 11
New
Mar 19
First Quarter
Mar 27
Full
Apr 2
Last Quarter

Hourly Weather History & Observations

Time (MST) Temp. Windchill Dew Point Humidity Pressure Visibility Wind Dir Wind Speed Gust Speed Precip Events Conditions
12:12 AM 24.8 °F - 19.4 °F 80% 29.71 in 1.2 mi Calm Calm - N/A Snow Light Snow
12:32 AM 24.8 °F - 19.4 °F 80% 29.70 in 0.8 mi Calm Calm - N/A Snow Light Snow
12:52 AM 24.8 °F 20.5 °F 19.4 °F 80% 29.70 in 0.5 mi West 3.5 mph - N/A Snow Snow
1:12 AM 24.8 °F 20.5 °F 19.4 °F 80% 29.70 in 0.5 mi West 3.5 mph - N/A Snow Snow
1:32 AM 24.8 °F 14.0 °F 19.4 °F 80% 29.69 in 0.5 mi West 11.5 mph - N/A Snow Snow
1:45 AM 24.8 °F - 19.4 °F 80% 29.69 in 0.5 mi North - - N/A Snow Snow
2:04 AM 24.8 °F 11.5 °F 19.4 °F 80% 29.68 in 0.2 mi West 17.3 mph - N/A Snow Heavy Snow
2:31 AM 23.0 °F 8.3 °F 17.6 °F 80% 29.67 in 0.2 mi West 19.6 mph - N/A Snow Snow
2:49 AM 23.0 °F - 17.6 °F 80% 29.66 in 0.2 mi North - - N/A Snow Snow
3:12 AM 23.0 °F - 17.6 °F 80% 29.66 in 0.2 mi North - - N/A Snow Snow
3:32 AM 23.0 °F - 17.6 °F 80% 29.66 in 0.2 mi North - - N/A Snow Snow
3:44 AM 23.0 °F - 17.6 °F 80% 29.66 in 0.2 mi North - - N/A Snow Light Snow
4:03 AM 21.2 °F - 15.8 °F 80% 29.66 in 0.2 mi North - - N/A Snow Snow
4:24 AM 21.2 °F - 14.0 °F 74% 29.66 in 0.2 mi North - - N/A Snow Light Snow
4:42 AM 19.4 °F - 14.0 °F 80% 29.66 in 0.2 mi North - - N/A   Haze
5:12 AM 19.4 °F 8.6 °F 14.0 °F 80% 29.66 in 0.2 mi WSW 9.2 mph - N/A   Haze
5:25 AM 19.4 °F - 14.0 °F 80% 29.65 in 10.0 mi North - - N/A Snow Light Snow
5:52 AM 19.4 °F 7.2 °F 14.0 °F 80% 29.65 in 0.2 mi West 11.5 mph - N/A   Haze
6:12 AM 19.4 °F - 14.0 °F 80% 29.65 in 0.2 mi North - - N/A   Haze
6:32 AM 19.4 °F 5.5 °F 14.0 °F 80% 29.66 in 0.5 mi West 15.0 mph - N/A   Haze
6:52 AM 19.4 °F - 14.0 °F 80% 29.66 in 0.8 mi North - - N/A Snow Light Snow
7:12 AM 19.4 °F 6.0 °F 14.0 °F 80% 29.66 in 0.2 mi West 13.8 mph - N/A Snow Snow
7:13 AM 19.4 °F 6.0 °F 14.0 °F 80% 29.66 in 0.2 mi West 13.8 mph - N/A Snow Snow
9:52 AM 23.0 °F 11.1 °F 17.6 °F 80% 29.67 in 0.8 mi West 12.7 mph - N/A Snow Light Snow
10:12 AM 23.0 °F 11.7 °F 17.6 °F 80% 29.66 in 0.8 mi West 11.5 mph - N/A Snow Light Snow
10:32 AM 23.0 °F 10.1 °F 17.6 °F 80% 29.67 in 1.0 mi West 15.0 mph 18.4 mph N/A Snow Light Snow
10:52 AM 23.0 °F 12.4 °F 17.6 °F 80% 29.67 in 0.5 mi West 10.4 mph - N/A Snow Light Snow
11:12 AM 24.8 °F 14.0 °F 19.4 °F 80% 29.67 in 0.8 mi West 11.5 mph - N/A Snow Light Snow
11:32 AM 23.0 °F 13.1 °F 17.6 °F 80% 29.68 in 0.5 mi West 9.2 mph - N/A Snow Snow
11:52 AM 24.8 °F 15.3 °F 19.4 °F 80% 29.68 in 0.2 mi WNW 9.2 mph 19.6 mph N/A Snow Snow
12:12 PM 23.0 °F 13.9 °F 17.6 °F 80% 29.68 in 0.2 mi West 8.1 mph 19.6 mph N/A Snow Snow
12:32 PM 23.0 °F 10.6 °F 17.6 °F 80% 29.68 in 0.5 mi WNW 13.8 mph - N/A Snow Light Snow
12:52 PM 23.0 °F 11.1 °F 17.6 °F 80% 29.68 in 0.2 mi WNW 12.7 mph 24.2 mph N/A Snow Heavy Snow
1:12 PM 23.0 °F 10.1 °F 17.6 °F 80% 29.68 in - WNW 15.0 mph 25.3 mph N/A   Overcast
1:32 PM 23.0 °F 9.6 °F 17.6 °F 80% 29.68 in - WNW 16.1 mph 26.5 mph N/A   Overcast
1:52 PM 23.0 °F 7.6 °F 17.6 °F 80% 29.69 in - WNW 21.9 mph 27.6 mph N/A   Overcast
2:12 PM 23.0 °F 9.6 °F 17.6 °F 80% 29.69 in - WNW 16.1 mph 28.8 mph N/A   Overcast
2:32 PM 23.0 °F 10.1 °F 17.6 °F 80% 29.71 in - WNW 15.0 mph 24.2 mph N/A   Overcast
2:52 PM 23.0 °F 8.7 °F 17.6 °F 80% 29.72 in - WNW 18.4 mph 28.8 mph N/A   Overcast
3:12 PM 21.2 °F - 15.8 °F 80% 29.72 in - North - - N/A   Overcast
3:32 PM 23.0 °F 7.6 °F 17.6 °F 80% 29.74 in - WNW 21.9 mph - N/A   Overcast
3:52 PM 21.2 °F 6.8 °F 14.0 °F 74% 29.75 in - WNW 17.3 mph - N/A   Overcast
4:12 PM 19.4 °F 4.1 °F 14.0 °F 80% 29.76 in - WNW 18.4 mph - N/A   Overcast
4:32 PM 19.4 °F - 14.0 °F 80% 29.77 in - North - - N/A   Overcast
4:52 PM 19.4 °F 4.5 °F 14.0 °F 80% 29.79 in - WNW 17.3 mph 20.7 mph N/A   Overcast
5:12 PM 17.6 °F 3.2 °F 12.2 °F 79% 29.79 in - WNW 15.0 mph 21.9 mph N/A   Overcast
5:32 PM 17.6 °F 1.3 °F 10.4 °F 73% 29.81 in - WNW 19.6 mph 23.0 mph N/A   Overcast
5:52 PM 17.6 °F 4.3 °F 10.4 °F 73% 29.82 in - WNW 12.7 mph - N/A   Overcast
6:12 PM 15.8 °F -0.2 °F 10.4 °F 79% 29.84 in - WNW 17.3 mph 24.2 mph N/A   Overcast
6:32 PM 15.8 °F -0.6 °F 10.4 °F 79% 29.84 in - WNW 18.4 mph - N/A   Overcast
6:52 PM 14.0 °F -3.4 °F 8.6 °F 79% 29.86 in - WNW 19.6 mph 25.3 mph N/A   Overcast
7:12 PM 14.0 °F 0.5 °F 8.6 °F 79% 29.86 in - WNW 11.5 mph 21.9 mph N/A   Overcast
7:32 PM 14.0 °F -2.0 °F 8.6 °F 79% 29.87 in - WNW 16.1 mph 24.2 mph N/A   Overcast
7:52 PM 14.0 °F - 8.6 °F 79% 29.88 in - North - - N/A   Overcast
8:12 PM 14.0 °F - 8.6 °F 79% 29.88 in - North - - N/A   Overcast
8:32 PM 12.2 °F - 5.0 °F 73% 29.89 in - North - - N/A   Overcast
8:52 PM 12.2 °F - 5.0 °F 73% 29.89 in - North - - N/A   Overcast
9:12 PM 12.2 °F -3.1 °F 5.0 °F 73% 29.90 in - WNW 13.8 mph - N/A   Overcast
9:32 PM 10.4 °F -4.8 °F 3.2 °F 73% 29.91 in - WNW 12.7 mph 24.2 mph N/A   Overcast
9:52 PM 8.6 °F -7.0 °F 3.2 °F 79% 29.91 in - WNW 12.7 mph 24.2 mph N/A   Overcast
10:12 PM 8.6 °F -5.5 °F 3.2 °F 79% 29.92 in - WNW 10.4 mph 21.9 mph N/A   Overcast
10:32 PM 8.6 °F -8.3 °F 1.4 °F 73% 29.92 in - WNW 15.0 mph 18.4 mph N/A   Overcast
10:52 PM 8.6 °F -6.3 °F 1.4 °F 73% 29.92 in - WNW 11.5 mph 18.4 mph N/A   Overcast
11:12 PM 8.6 °F -5.5 °F 1.4 °F 73% 29.92 in - WNW 10.4 mph 18.4 mph N/A   Overcast
11:32 PM 8.6 °F -8.3 °F 1.4 °F 73% 29.92 in - WNW 15.0 mph 24.2 mph N/A   Overcast
11:52 PM 8.6 °F -5.5 °F 1.4 °F 73% 29.92 in - WNW 10.4 mph 18.4 mph N/A   Overcast